Index of /20260429/WXO-DD/model_gdps/15km/12/057
Name Last modified Size Description
Parent Directory -
20260429T12Z_MSC_GDPS_AbsoluteVorticity_IsbL-0200_LatLon0.15_PT057H.grib2 2026-04-29 16:12 1.5M
20260429T12Z_MSC_GDPS_AbsoluteVorticity_IsbL-0250_LatLon0.15_PT057H.grib2 2026-04-29 16:12 1.3M
20260429T12Z_MSC_GDPS_AbsoluteVorticity_IsbL-0500_LatLon0.15_PT057H.grib2 2026-04-29 16:12 1.4M
20260429T12Z_MSC_GDPS_AbsoluteVorticity_IsbL-0700_LatLon0.15_PT057H.grib2 2026-04-29 16:12 1.6M
20260429T12Z_MSC_GDPS_AbsoluteVorticity_IsbL-0850_LatLon0.15_PT057H.grib2 2026-04-29 16:12 1.6M
20260429T12Z_MSC_GDPS_AirTemp_AGL-120m_LatLon0.15_PT057H.grib2 2026-04-29 16:12 792K
20260429T12Z_MSC_GDPS_AirTemp_AGL-2m_LatLon0.15_PT057H.grib2 2026-04-29 16:12 1.0M
20260429T12Z_MSC_GDPS_AirTemp_AGL-40m_LatLon0.15_PT057H.grib2 2026-04-29 16:12 817K
20260429T12Z_MSC_GDPS_AirTemp_AGL-80m_LatLon0.15_PT057H.grib2 2026-04-29 16:12 804K
20260429T12Z_MSC_GDPS_AirTemp_IsbL-0001_LatLon0.15_PT057H.grib2 2026-04-29 16:12 654K
20260429T12Z_MSC_GDPS_AirTemp_IsbL-0005_LatLon0.15_PT057H.grib2 2026-04-29 16:12 679K
20260429T12Z_MSC_GDPS_AirTemp_IsbL-0010_LatLon0.15_PT057H.grib2 2026-04-29 16:12 758K
20260429T12Z_MSC_GDPS_AirTemp_IsbL-0020_LatLon0.15_PT057H.grib2 2026-04-29 16:12 788K
20260429T12Z_MSC_GDPS_AirTemp_IsbL-0030_LatLon0.15_PT057H.grib2 2026-04-29 16:12 754K
20260429T12Z_MSC_GDPS_AirTemp_IsbL-0050_LatLon0.15_PT057H.grib2 2026-04-29 16:12 807K
20260429T12Z_MSC_GDPS_AirTemp_IsbL-0100_LatLon0.15_PT057H.grib2 2026-04-29 16:12 1.0M
20260429T12Z_MSC_GDPS_AirTemp_IsbL-0150_LatLon0.15_PT057H.grib2 2026-04-29 16:12 1.0M
20260429T12Z_MSC_GDPS_AirTemp_IsbL-0175_LatLon0.15_PT057H.grib2 2026-04-29 16:12 964K
20260429T12Z_MSC_GDPS_AirTemp_IsbL-0200_LatLon0.15_PT057H.grib2 2026-04-29 16:12 1.0M
20260429T12Z_MSC_GDPS_AirTemp_IsbL-0225_LatLon0.15_PT057H.grib2 2026-04-29 16:12 1.0M
20260429T12Z_MSC_GDPS_AirTemp_IsbL-0250_LatLon0.15_PT057H.grib2 2026-04-29 16:12 1.0M
20260429T12Z_MSC_GDPS_AirTemp_IsbL-0275_LatLon0.15_PT057H.grib2 2026-04-29 16:12 1.0M
20260429T12Z_MSC_GDPS_AirTemp_IsbL-0300_LatLon0.15_PT057H.grib2 2026-04-29 16:12 943K
20260429T12Z_MSC_GDPS_AirTemp_IsbL-0350_LatLon0.15_PT057H.grib2 2026-04-29 16:12 927K
20260429T12Z_MSC_GDPS_AirTemp_IsbL-0400_LatLon0.15_PT057H.grib2 2026-04-29 16:12 941K
20260429T12Z_MSC_GDPS_AirTemp_IsbL-0450_LatLon0.15_PT057H.grib2 2026-04-29 16:12 960K
20260429T12Z_MSC_GDPS_AirTemp_IsbL-0500_LatLon0.15_PT057H.grib2 2026-04-29 16:12 1.0M
20260429T12Z_MSC_GDPS_AirTemp_IsbL-0550_LatLon0.15_PT057H.grib2 2026-04-29 16:12 799K
20260429T12Z_MSC_GDPS_AirTemp_IsbL-0600_LatLon0.15_PT057H.grib2 2026-04-29 16:12 894K
20260429T12Z_MSC_GDPS_AirTemp_IsbL-0650_LatLon0.15_PT057H.grib2 2026-04-29 16:12 922K
20260429T12Z_MSC_GDPS_AirTemp_IsbL-0700_LatLon0.15_PT057H.grib2 2026-04-29 16:12 959K
20260429T12Z_MSC_GDPS_AirTemp_IsbL-0750_LatLon0.15_PT057H.grib2 2026-04-29 16:12 1.0M
20260429T12Z_MSC_GDPS_AirTemp_IsbL-0800_LatLon0.15_PT057H.grib2 2026-04-29 16:12 1.1M
20260429T12Z_MSC_GDPS_AirTemp_IsbL-0850_LatLon0.15_PT057H.grib2 2026-04-29 16:12 1.1M
20260429T12Z_MSC_GDPS_AirTemp_IsbL-0875_LatLon0.15_PT057H.grib2 2026-04-29 16:12 1.2M
20260429T12Z_MSC_GDPS_AirTemp_IsbL-0900_LatLon0.15_PT057H.grib2 2026-04-29 16:12 1.1M
20260429T12Z_MSC_GDPS_AirTemp_IsbL-0925_LatLon0.15_PT057H.grib2 2026-04-29 16:12 1.1M
20260429T12Z_MSC_GDPS_AirTemp_IsbL-0950_LatLon0.15_PT057H.grib2 2026-04-29 16:12 1.1M
20260429T12Z_MSC_GDPS_AirTemp_IsbL-0970_LatLon0.15_PT057H.grib2 2026-04-29 16:12 1.2M
20260429T12Z_MSC_GDPS_AirTemp_IsbL-0985_LatLon0.15_PT057H.grib2 2026-04-29 16:12 1.1M
20260429T12Z_MSC_GDPS_AirTemp_IsbL-1000_LatLon0.15_PT057H.grib2 2026-04-29 16:12 1.1M
20260429T12Z_MSC_GDPS_AirTemp_IsbL-1015_LatLon0.15_PT057H.grib2 2026-04-29 16:12 1.1M
20260429T12Z_MSC_GDPS_Albedo_Sfc_LatLon0.15_PT057H.grib2 2026-04-29 16:12 242K
20260429T12Z_MSC_GDPS_CAPE_Sfc_LatLon0.15_PT057H.grib2 2026-04-29 16:12 3.9M
20260429T12Z_MSC_GDPS_CIN_Sfc_LatLon0.15_PT057H.grib2 2026-04-29 16:12 2.9M
20260429T12Z_MSC_GDPS_CloudWater_EAtm_LatLon0.15_PT057H.grib2 2026-04-29 16:12 534K
20260429T12Z_MSC_GDPS_ConvectivePrecip-Accum_Sfc_LatLon0.15_PT057H.grib2 2026-04-29 16:12 3.1M
20260429T12Z_MSC_GDPS_DewPointDepression_AGL-2m_LatLon0.15_PT057H.grib2 2026-04-29 16:12 764K
20260429T12Z_MSC_GDPS_DewPointDepression_IsbL-0010_LatLon0.15_PT057H.grib2 2026-04-29 16:12 59K
20260429T12Z_MSC_GDPS_DewPointDepression_IsbL-0020_LatLon0.15_PT057H.grib2 2026-04-29 16:12 64K
20260429T12Z_MSC_GDPS_DewPointDepression_IsbL-0030_LatLon0.15_PT057H.grib2 2026-04-29 16:12 78K
20260429T12Z_MSC_GDPS_DewPointDepression_IsbL-0050_LatLon0.15_PT057H.grib2 2026-04-29 16:12 371K
20260429T12Z_MSC_GDPS_DewPointDepression_IsbL-0100_LatLon0.15_PT057H.grib2 2026-04-29 16:12 413K
20260429T12Z_MSC_GDPS_DewPointDepression_IsbL-0150_LatLon0.15_PT057H.grib2 2026-04-29 16:12 465K
20260429T12Z_MSC_GDPS_DewPointDepression_IsbL-0175_LatLon0.15_PT057H.grib2 2026-04-29 16:12 572K
20260429T12Z_MSC_GDPS_DewPointDepression_IsbL-0200_LatLon0.15_PT057H.grib2 2026-04-29 16:12 690K
20260429T12Z_MSC_GDPS_DewPointDepression_IsbL-0225_LatLon0.15_PT057H.grib2 2026-04-29 16:12 784K
20260429T12Z_MSC_GDPS_DewPointDepression_IsbL-0250_LatLon0.15_PT057H.grib2 2026-04-29 16:12 867K
20260429T12Z_MSC_GDPS_DewPointDepression_IsbL-0275_LatLon0.15_PT057H.grib2 2026-04-29 16:12 882K
20260429T12Z_MSC_GDPS_DewPointDepression_IsbL-0300_LatLon0.15_PT057H.grib2 2026-04-29 16:12 920K
20260429T12Z_MSC_GDPS_DewPointDepression_IsbL-0350_LatLon0.15_PT057H.grib2 2026-04-29 16:12 947K
20260429T12Z_MSC_GDPS_DewPointDepression_IsbL-0400_LatLon0.15_PT057H.grib2 2026-04-29 16:12 1.0M
20260429T12Z_MSC_GDPS_DewPointDepression_IsbL-0450_LatLon0.15_PT057H.grib2 2026-04-29 16:12 1.0M
20260429T12Z_MSC_GDPS_DewPointDepression_IsbL-0500_LatLon0.15_PT057H.grib2 2026-04-29 16:12 1.0M
20260429T12Z_MSC_GDPS_DewPointDepression_IsbL-0550_LatLon0.15_PT057H.grib2 2026-04-29 16:12 1.0M
20260429T12Z_MSC_GDPS_DewPointDepression_IsbL-0600_LatLon0.15_PT057H.grib2 2026-04-29 16:12 1.0M
20260429T12Z_MSC_GDPS_DewPointDepression_IsbL-0650_LatLon0.15_PT057H.grib2 2026-04-29 16:12 1.1M
20260429T12Z_MSC_GDPS_DewPointDepression_IsbL-0700_LatLon0.15_PT057H.grib2 2026-04-29 16:12 1.1M
20260429T12Z_MSC_GDPS_DewPointDepression_IsbL-0750_LatLon0.15_PT057H.grib2 2026-04-29 16:12 1.1M
20260429T12Z_MSC_GDPS_DewPointDepression_IsbL-0800_LatLon0.15_PT057H.grib2 2026-04-29 16:12 1.2M
20260429T12Z_MSC_GDPS_DewPointDepression_IsbL-0850_LatLon0.15_PT057H.grib2 2026-04-29 16:12 1.2M
20260429T12Z_MSC_GDPS_DewPointDepression_IsbL-0875_LatLon0.15_PT057H.grib2 2026-04-29 16:12 1.1M
20260429T12Z_MSC_GDPS_DewPointDepression_IsbL-0900_LatLon0.15_PT057H.grib2 2026-04-29 16:12 1.1M
20260429T12Z_MSC_GDPS_DewPointDepression_IsbL-0925_LatLon0.15_PT057H.grib2 2026-04-29 16:12 1.0M
20260429T12Z_MSC_GDPS_DewPointDepression_IsbL-0950_LatLon0.15_PT057H.grib2 2026-04-29 16:12 1.0M
20260429T12Z_MSC_GDPS_DewPointDepression_IsbL-0970_LatLon0.15_PT057H.grib2 2026-04-29 16:12 1.0M
20260429T12Z_MSC_GDPS_DewPointDepression_IsbL-0985_LatLon0.15_PT057H.grib2 2026-04-29 16:12 1.0M
20260429T12Z_MSC_GDPS_DewPointDepression_IsbL-1000_LatLon0.15_PT057H.grib2 2026-04-29 16:12 1.0M
20260429T12Z_MSC_GDPS_DewPointDepression_IsbL-1015_LatLon0.15_PT057H.grib2 2026-04-29 16:12 918K
20260429T12Z_MSC_GDPS_DewPoint_AGL-2m_LatLon0.15_PT057H.grib2 2026-04-29 16:12 606K
20260429T12Z_MSC_GDPS_DownwardLongwaveRadiationFlux-Accum_Sfc_LatLon0.15_PT057H.grib2 2026-04-29 16:12 860K
20260429T12Z_MSC_GDPS_DownwardShortwaveRadiationFlux-Accum_NTAtm_LatLon0.15_PT057H.grib2 2026-04-29 16:12 211K
20260429T12Z_MSC_GDPS_DownwardShortwaveRadiationFlux-Accum_Sfc_LatLon0.15_PT057H.grib2 2026-04-29 16:12 1.1M
20260429T12Z_MSC_GDPS_FreezingRain-Accum1h_Sfc_LatLon0.15_PT057H.grib2 2026-04-29 16:12 41K
20260429T12Z_MSC_GDPS_FreezingRain-Accum3h_Sfc_LatLon0.15_PT057H.grib2 2026-04-29 16:12 44K
20260429T12Z_MSC_GDPS_FreezingRain-Accum_Sfc_LatLon0.15_PT057H.grib2 2026-04-29 16:12 292K
20260429T12Z_MSC_GDPS_GeopotentialHeight_IsbL-0001_LatLon0.15_PT057H.grib2 2026-04-29 16:12 373K
20260429T12Z_MSC_GDPS_GeopotentialHeight_IsbL-0005_LatLon0.15_PT057H.grib2 2026-04-29 16:12 492K
20260429T12Z_MSC_GDPS_GeopotentialHeight_IsbL-0010_LatLon0.15_PT057H.grib2 2026-04-29 16:12 480K
20260429T12Z_MSC_GDPS_GeopotentialHeight_IsbL-0020_LatLon0.15_PT057H.grib2 2026-04-29 16:12 414K
20260429T12Z_MSC_GDPS_GeopotentialHeight_IsbL-0030_LatLon0.15_PT057H.grib2 2026-04-29 16:12 569K
20260429T12Z_MSC_GDPS_GeopotentialHeight_IsbL-0050_LatLon0.15_PT057H.grib2 2026-04-29 16:12 572K
20260429T12Z_MSC_GDPS_GeopotentialHeight_IsbL-0100_LatLon0.15_PT057H.grib2 2026-04-29 16:12 609K
20260429T12Z_MSC_GDPS_GeopotentialHeight_IsbL-0150_LatLon0.15_PT057H.grib2 2026-04-29 16:12 632K
20260429T12Z_MSC_GDPS_GeopotentialHeight_IsbL-0175_LatLon0.15_PT057H.grib2 2026-04-29 16:12 636K
20260429T12Z_MSC_GDPS_GeopotentialHeight_IsbL-0200_LatLon0.15_PT057H.grib2 2026-04-29 16:12 641K
20260429T12Z_MSC_GDPS_GeopotentialHeight_IsbL-0225_LatLon0.15_PT057H.grib2 2026-04-29 16:12 644K
20260429T12Z_MSC_GDPS_GeopotentialHeight_IsbL-0250_LatLon0.15_PT057H.grib2 2026-04-29 16:12 645K
20260429T12Z_MSC_GDPS_GeopotentialHeight_IsbL-0275_LatLon0.15_PT057H.grib2 2026-04-29 16:12 644K
20260429T12Z_MSC_GDPS_GeopotentialHeight_IsbL-0300_LatLon0.15_PT057H.grib2 2026-04-29 16:12 642K
20260429T12Z_MSC_GDPS_GeopotentialHeight_IsbL-0350_LatLon0.15_PT057H.grib2 2026-04-29 16:12 634K
20260429T12Z_MSC_GDPS_GeopotentialHeight_IsbL-0400_LatLon0.15_PT057H.grib2 2026-04-29 16:12 625K
20260429T12Z_MSC_GDPS_GeopotentialHeight_IsbL-0450_LatLon0.15_PT057H.grib2 2026-04-29 16:12 616K
20260429T12Z_MSC_GDPS_GeopotentialHeight_IsbL-0500_LatLon0.15_PT057H.grib2 2026-04-29 16:12 535K
20260429T12Z_MSC_GDPS_GeopotentialHeight_IsbL-0550_LatLon0.15_PT057H.grib2 2026-04-29 16:12 528K
20260429T12Z_MSC_GDPS_GeopotentialHeight_IsbL-0600_LatLon0.15_PT057H.grib2 2026-04-29 16:12 524K
20260429T12Z_MSC_GDPS_GeopotentialHeight_IsbL-0650_LatLon0.15_PT057H.grib2 2026-04-29 16:12 690K
20260429T12Z_MSC_GDPS_GeopotentialHeight_IsbL-0700_LatLon0.15_PT057H.grib2 2026-04-29 16:12 686K
20260429T12Z_MSC_GDPS_GeopotentialHeight_IsbL-0750_LatLon0.15_PT057H.grib2 2026-04-29 16:12 691K
20260429T12Z_MSC_GDPS_GeopotentialHeight_IsbL-0800_LatLon0.15_PT057H.grib2 2026-04-29 16:12 704K
20260429T12Z_MSC_GDPS_GeopotentialHeight_IsbL-0850_LatLon0.15_PT057H.grib2 2026-04-29 16:12 709K
20260429T12Z_MSC_GDPS_GeopotentialHeight_IsbL-0875_LatLon0.15_PT057H.grib2 2026-04-29 16:12 713K
20260429T12Z_MSC_GDPS_GeopotentialHeight_IsbL-0900_LatLon0.15_PT057H.grib2 2026-04-29 16:12 724K
20260429T12Z_MSC_GDPS_GeopotentialHeight_IsbL-0925_LatLon0.15_PT057H.grib2 2026-04-29 16:12 733K
20260429T12Z_MSC_GDPS_GeopotentialHeight_IsbL-0950_LatLon0.15_PT057H.grib2 2026-04-29 16:12 740K
20260429T12Z_MSC_GDPS_GeopotentialHeight_IsbL-0970_LatLon0.15_PT057H.grib2 2026-04-29 16:12 750K
20260429T12Z_MSC_GDPS_GeopotentialHeight_IsbL-0985_LatLon0.15_PT057H.grib2 2026-04-29 16:12 766K
20260429T12Z_MSC_GDPS_GeopotentialHeight_IsbL-1000_LatLon0.15_PT057H.grib2 2026-04-29 16:12 788K
20260429T12Z_MSC_GDPS_GeopotentialHeight_IsbL-1015_LatLon0.15_PT057H.grib2 2026-04-29 16:12 806K
20260429T12Z_MSC_GDPS_Humidex_Sfc_LatLon0.15_PT057H.grib2 2026-04-29 16:12 5.3M
20260429T12Z_MSC_GDPS_IcePellets-Accum1h_Sfc_LatLon0.15_PT057H.grib2 2026-04-29 16:12 7.9K
20260429T12Z_MSC_GDPS_IcePellets-Accum3h_Sfc_LatLon0.15_PT057H.grib2 2026-04-29 16:12 9.5K
20260429T12Z_MSC_GDPS_IcePellets-Accum_Sfc_LatLon0.15_PT057H.grib2 2026-04-29 16:12 55K
20260429T12Z_MSC_GDPS_KIndex_Sfc_LatLon0.15_PT057H.grib2 2026-04-29 16:12 6.5M
20260429T12Z_MSC_GDPS_LatentHeatNetFlux_Sfc_LatLon0.15_PT057H.grib2 2026-04-29 16:12 664K
20260429T12Z_MSC_GDPS_LiftedIndex-MU-VT_IsbL-0500_LatLon0.15_PT057H.grib2 2026-04-29 16:12 5.3M
20260429T12Z_MSC_GDPS_NetLongwaveRadiationFlux-Accum_Sfc_LatLon0.15_PT057H.grib2 2026-04-29 16:12 1.2M
20260429T12Z_MSC_GDPS_NetShortwaveRadiationFlux-Accum_Sfc_LatLon0.15_PT057H.grib2 2026-04-29 16:12 1.0M
20260429T12Z_MSC_GDPS_O3MixingRatio_Sfc_LatLon0.15_PT057H.grib2 2026-04-29 16:50 2.0M
20260429T12Z_MSC_GDPS_O3_EAtm_LatLon0.15_PT057H.grib2 2026-04-29 16:50 2.5M
20260429T12Z_MSC_GDPS_PlanetaryBoundaryLayerHeight_Sfc_LatLon0.15_PT057H.grib2 2026-04-29 16:12 2.4M
20260429T12Z_MSC_GDPS_Precip-Accum1h_Sfc_LatLon0.15_PT057H.grib2 2026-04-29 16:12 3.2M
20260429T12Z_MSC_GDPS_Precip-Accum3h_Sfc_LatLon0.15_PT057H.grib2 2026-04-29 16:12 3.5M
20260429T12Z_MSC_GDPS_Precip-Accum_Sfc_LatLon0.15_PT057H.grib2 2026-04-29 16:12 5.0M
20260429T12Z_MSC_GDPS_PrecipRate_Sfc_LatLon0.15_PT057H.grib2 2026-04-29 16:12 3.0M
20260429T12Z_MSC_GDPS_PrecipType-Instant_Sfc_LatLon0.15_PT057H.grib2 2026-04-29 16:12 1.5M
20260429T12Z_MSC_GDPS_Pressure_MSL_LatLon0.15_PT057H.grib2 2026-04-29 16:12 824K
20260429T12Z_MSC_GDPS_Pressure_PVU-1.5_LatLon0.15_PT057H.grib2 2026-04-29 16:12 5.8M
20260429T12Z_MSC_GDPS_Pressure_PVU-1_LatLon0.15_PT057H.grib2 2026-04-29 16:12 6.0M
20260429T12Z_MSC_GDPS_Pressure_PVU-2_LatLon0.15_PT057H.grib2 2026-04-29 16:12 5.6M
20260429T12Z_MSC_GDPS_Pressure_Sfc_LatLon0.15_PT057H.grib2 2026-04-29 16:12 1.1M
20260429T12Z_MSC_GDPS_RadiativeTemp_Sfc_LatLon0.15_PT057H.grib2 2026-04-29 16:12 488K
20260429T12Z_MSC_GDPS_Rain-Accum1h_Sfc_LatLon0.15_PT057H.grib2 2026-04-29 16:12 1.6M
20260429T12Z_MSC_GDPS_Rain-Accum3h_Sfc_LatLon0.15_PT057H.grib2 2026-04-29 16:12 1.7M
20260429T12Z_MSC_GDPS_Rain-Accum_Sfc_LatLon0.15_PT057H.grib2 2026-04-29 16:12 3.8M
20260429T12Z_MSC_GDPS_RelativeHumidity_AGL-2m_LatLon0.15_PT057H.grib2 2026-04-29 16:12 1.1M
20260429T12Z_MSC_GDPS_RelativeHumidity_IsbL-0010_LatLon0.15_PT057H.grib2 2026-04-29 16:12 196K
20260429T12Z_MSC_GDPS_RelativeHumidity_IsbL-0020_LatLon0.15_PT057H.grib2 2026-04-29 16:12 167K
20260429T12Z_MSC_GDPS_RelativeHumidity_IsbL-0030_LatLon0.15_PT057H.grib2 2026-04-29 16:12 266K
20260429T12Z_MSC_GDPS_RelativeHumidity_IsbL-0050_LatLon0.15_PT057H.grib2 2026-04-29 16:12 418K
20260429T12Z_MSC_GDPS_RelativeHumidity_IsbL-0100_LatLon0.15_PT057H.grib2 2026-04-29 16:12 511K
20260429T12Z_MSC_GDPS_RelativeHumidity_IsbL-0150_LatLon0.15_PT057H.grib2 2026-04-29 16:12 658K
20260429T12Z_MSC_GDPS_RelativeHumidity_IsbL-0175_LatLon0.15_PT057H.grib2 2026-04-29 16:12 781K
20260429T12Z_MSC_GDPS_RelativeHumidity_IsbL-0200_LatLon0.15_PT057H.grib2 2026-04-29 16:12 702K
20260429T12Z_MSC_GDPS_RelativeHumidity_IsbL-0225_LatLon0.15_PT057H.grib2 2026-04-29 16:12 789K
20260429T12Z_MSC_GDPS_RelativeHumidity_IsbL-0250_LatLon0.15_PT057H.grib2 2026-04-29 16:12 866K
20260429T12Z_MSC_GDPS_RelativeHumidity_IsbL-0275_LatLon0.15_PT057H.grib2 2026-04-29 16:12 888K
20260429T12Z_MSC_GDPS_RelativeHumidity_IsbL-0300_LatLon0.15_PT057H.grib2 2026-04-29 16:12 928K
20260429T12Z_MSC_GDPS_RelativeHumidity_IsbL-0350_LatLon0.15_PT057H.grib2 2026-04-29 16:12 947K
20260429T12Z_MSC_GDPS_RelativeHumidity_IsbL-0400_LatLon0.15_PT057H.grib2 2026-04-29 16:12 970K
20260429T12Z_MSC_GDPS_RelativeHumidity_IsbL-0450_LatLon0.15_PT057H.grib2 2026-04-29 16:12 1.0M
20260429T12Z_MSC_GDPS_RelativeHumidity_IsbL-0500_LatLon0.15_PT057H.grib2 2026-04-29 16:12 1.0M
20260429T12Z_MSC_GDPS_RelativeHumidity_IsbL-0550_LatLon0.15_PT057H.grib2 2026-04-29 16:12 1.1M
20260429T12Z_MSC_GDPS_RelativeHumidity_IsbL-0600_LatLon0.15_PT057H.grib2 2026-04-29 16:12 1.0M
20260429T12Z_MSC_GDPS_RelativeHumidity_IsbL-0650_LatLon0.15_PT057H.grib2 2026-04-29 16:12 1.1M
20260429T12Z_MSC_GDPS_RelativeHumidity_IsbL-0700_LatLon0.15_PT057H.grib2 2026-04-29 16:12 1.1M
20260429T12Z_MSC_GDPS_RelativeHumidity_IsbL-0750_LatLon0.15_PT057H.grib2 2026-04-29 16:12 1.2M
20260429T12Z_MSC_GDPS_RelativeHumidity_IsbL-0800_LatLon0.15_PT057H.grib2 2026-04-29 16:12 1.3M
20260429T12Z_MSC_GDPS_RelativeHumidity_IsbL-0850_LatLon0.15_PT057H.grib2 2026-04-29 16:12 1.3M
20260429T12Z_MSC_GDPS_RelativeHumidity_IsbL-0875_LatLon0.15_PT057H.grib2 2026-04-29 16:12 1.3M
20260429T12Z_MSC_GDPS_RelativeHumidity_IsbL-0900_LatLon0.15_PT057H.grib2 2026-04-29 16:12 1.3M
20260429T12Z_MSC_GDPS_RelativeHumidity_IsbL-0925_LatLon0.15_PT057H.grib2 2026-04-29 16:12 1.2M
20260429T12Z_MSC_GDPS_RelativeHumidity_IsbL-0950_LatLon0.15_PT057H.grib2 2026-04-29 16:12 1.2M
20260429T12Z_MSC_GDPS_RelativeHumidity_IsbL-0970_LatLon0.15_PT057H.grib2 2026-04-29 16:12 1.2M
20260429T12Z_MSC_GDPS_RelativeHumidity_IsbL-0985_LatLon0.15_PT057H.grib2 2026-04-29 16:12 1.2M
20260429T12Z_MSC_GDPS_RelativeHumidity_IsbL-1000_LatLon0.15_PT057H.grib2 2026-04-29 16:12 1.1M
20260429T12Z_MSC_GDPS_RelativeHumidity_IsbL-1015_LatLon0.15_PT057H.grib2 2026-04-29 16:12 1.0M
20260429T12Z_MSC_GDPS_RelativeVorticity_IsbL-0200_LatLon0.15_PT057H.grib2 2026-04-29 16:12 1.5M
20260429T12Z_MSC_GDPS_RelativeVorticity_IsbL-0250_LatLon0.15_PT057H.grib2 2026-04-29 16:12 1.6M
20260429T12Z_MSC_GDPS_RelativeVorticity_IsbL-0500_LatLon0.15_PT057H.grib2 2026-04-29 16:12 1.4M
20260429T12Z_MSC_GDPS_RelativeVorticity_IsbL-0700_LatLon0.15_PT057H.grib2 2026-04-29 16:12 1.6M
20260429T12Z_MSC_GDPS_RelativeVorticity_IsbL-0850_LatLon0.15_PT057H.grib2 2026-04-29 16:12 1.6M
20260429T12Z_MSC_GDPS_Runoff-Accum_Sfc_LatLon0.15_PT057H.grib2 2026-04-29 16:12 135K
20260429T12Z_MSC_GDPS_SensibleHeatNetFlux_Sfc_LatLon0.15_PT057H.grib2 2026-04-29 16:12 609K
20260429T12Z_MSC_GDPS_ShowalterIndex_IsbL-0500_LatLon0.15_PT057H.grib2 2026-04-29 16:12 6.2M
20260429T12Z_MSC_GDPS_Snow-Accum1h_Sfc_LatLon0.15_PT057H.grib2 2026-04-29 16:12 1.1M
20260429T12Z_MSC_GDPS_Snow-Accum3h_Sfc_LatLon0.15_PT057H.grib2 2026-04-29 16:12 1.1M
20260429T12Z_MSC_GDPS_Snow-Accum_Sfc_LatLon0.15_PT057H.grib2 2026-04-29 16:12 2.0M
20260429T12Z_MSC_GDPS_SnowDensity_Sfc_LatLon0.15_PT057H.grib2 2026-04-29 16:12 263K
20260429T12Z_MSC_GDPS_SnowDepth_Sfc_LatLon0.15_PT057H.grib2 2026-04-29 16:12 1.7M
20260429T12Z_MSC_GDPS_SoilTemp_DBS-0to10cm_LatLon0.15_PT057H.grib2 2026-04-29 16:12 509K
20260429T12Z_MSC_GDPS_SoilTemp_Sfc_LatLon0.15_PT057H.grib2 2026-04-29 16:12 576K
20260429T12Z_MSC_GDPS_SoilVolumetricIceContent_Sfc_LatLon0.15_PT057H.grib2 2026-04-29 16:12 203K
20260429T12Z_MSC_GDPS_SoilVolumetricWaterContent_DBS-0to10cm_LatLon0.15_PT057H.grib2 2026-04-29 16:12 585K
20260429T12Z_MSC_GDPS_SoilVolumetricWaterContent_DBS-0to1cm_LatLon0.15_PT057H.grib2 2026-04-29 16:12 651K
20260429T12Z_MSC_GDPS_SpecificHumidity_AGL-120m_LatLon0.15_PT057H.grib2 2026-04-29 16:12 1.1M
20260429T12Z_MSC_GDPS_SpecificHumidity_AGL-2m_LatLon0.15_PT057H.grib2 2026-04-29 16:12 1.2M
20260429T12Z_MSC_GDPS_SpecificHumidity_AGL-40m_LatLon0.15_PT057H.grib2 2026-04-29 16:12 1.1M
20260429T12Z_MSC_GDPS_SpecificHumidity_AGL-80m_LatLon0.15_PT057H.grib2 2026-04-29 16:12 1.1M
20260429T12Z_MSC_GDPS_SpecificHumidity_IsbL-0001_LatLon0.15_PT057H.grib2 2026-04-29 16:12 1.3M
20260429T12Z_MSC_GDPS_SpecificHumidity_IsbL-0005_LatLon0.15_PT057H.grib2 2026-04-29 16:12 1.2M
20260429T12Z_MSC_GDPS_SpecificHumidity_IsbL-0010_LatLon0.15_PT057H.grib2 2026-04-29 16:12 1.3M
20260429T12Z_MSC_GDPS_SpecificHumidity_IsbL-0020_LatLon0.15_PT057H.grib2 2026-04-29 16:12 1.4M
20260429T12Z_MSC_GDPS_SpecificHumidity_IsbL-0030_LatLon0.15_PT057H.grib2 2026-04-29 16:12 1.3M
20260429T12Z_MSC_GDPS_SpecificHumidity_IsbL-0050_LatLon0.15_PT057H.grib2 2026-04-29 16:12 1.7M
20260429T12Z_MSC_GDPS_SpecificHumidity_IsbL-0100_LatLon0.15_PT057H.grib2 2026-04-29 16:12 1.4M
20260429T12Z_MSC_GDPS_SpecificHumidity_IsbL-0150_LatLon0.15_PT057H.grib2 2026-04-29 16:12 1.3M
20260429T12Z_MSC_GDPS_SpecificHumidity_IsbL-0175_LatLon0.15_PT057H.grib2 2026-04-29 16:12 1.2M
20260429T12Z_MSC_GDPS_SpecificHumidity_IsbL-0200_LatLon0.15_PT057H.grib2 2026-04-29 16:12 1.3M
20260429T12Z_MSC_GDPS_SpecificHumidity_IsbL-0225_LatLon0.15_PT057H.grib2 2026-04-29 16:12 1.3M
20260429T12Z_MSC_GDPS_SpecificHumidity_IsbL-0250_LatLon0.15_PT057H.grib2 2026-04-29 16:12 1.4M
20260429T12Z_MSC_GDPS_SpecificHumidity_IsbL-0275_LatLon0.15_PT057H.grib2 2026-04-29 16:12 1.3M
20260429T12Z_MSC_GDPS_SpecificHumidity_IsbL-0300_LatLon0.15_PT057H.grib2 2026-04-29 16:12 1.2M
20260429T12Z_MSC_GDPS_SpecificHumidity_IsbL-0350_LatLon0.15_PT057H.grib2 2026-04-29 16:12 1.2M
20260429T12Z_MSC_GDPS_SpecificHumidity_IsbL-0400_LatLon0.15_PT057H.grib2 2026-04-29 16:12 1.4M
20260429T12Z_MSC_GDPS_SpecificHumidity_IsbL-0450_LatLon0.15_PT057H.grib2 2026-04-29 16:12 1.6M
20260429T12Z_MSC_GDPS_SpecificHumidity_IsbL-0500_LatLon0.15_PT057H.grib2 2026-04-29 16:12 1.4M
20260429T12Z_MSC_GDPS_SpecificHumidity_IsbL-0550_LatLon0.15_PT057H.grib2 2026-04-29 16:12 1.6M
20260429T12Z_MSC_GDPS_SpecificHumidity_IsbL-0600_LatLon0.15_PT057H.grib2 2026-04-29 16:12 1.7M
20260429T12Z_MSC_GDPS_SpecificHumidity_IsbL-0650_LatLon0.15_PT057H.grib2 2026-04-29 16:12 1.5M
20260429T12Z_MSC_GDPS_SpecificHumidity_IsbL-0700_LatLon0.15_PT057H.grib2 2026-04-29 16:12 1.6M
20260429T12Z_MSC_GDPS_SpecificHumidity_IsbL-0750_LatLon0.15_PT057H.grib2 2026-04-29 16:12 1.7M
20260429T12Z_MSC_GDPS_SpecificHumidity_IsbL-0800_LatLon0.15_PT057H.grib2 2026-04-29 16:12 1.9M
20260429T12Z_MSC_GDPS_SpecificHumidity_IsbL-0850_LatLon0.15_PT057H.grib2 2026-04-29 16:12 1.9M
20260429T12Z_MSC_GDPS_SpecificHumidity_IsbL-0875_LatLon0.15_PT057H.grib2 2026-04-29 16:12 1.9M
20260429T12Z_MSC_GDPS_SpecificHumidity_IsbL-0900_LatLon0.15_PT057H.grib2 2026-04-29 16:12 1.9M
20260429T12Z_MSC_GDPS_SpecificHumidity_IsbL-0925_LatLon0.15_PT057H.grib2 2026-04-29 16:12 1.6M
20260429T12Z_MSC_GDPS_SpecificHumidity_IsbL-0950_LatLon0.15_PT057H.grib2 2026-04-29 16:12 1.5M
20260429T12Z_MSC_GDPS_SpecificHumidity_IsbL-0970_LatLon0.15_PT057H.grib2 2026-04-29 16:12 1.5M
20260429T12Z_MSC_GDPS_SpecificHumidity_IsbL-0985_LatLon0.15_PT057H.grib2 2026-04-29 16:12 1.5M
20260429T12Z_MSC_GDPS_SpecificHumidity_IsbL-1000_LatLon0.15_PT057H.grib2 2026-04-29 16:12 1.5M
20260429T12Z_MSC_GDPS_SpecificHumidity_IsbL-1015_LatLon0.15_PT057H.grib2 2026-04-29 16:12 1.4M
20260429T12Z_MSC_GDPS_SpecificHumidity_Sfc_LatLon0.15_PT057H.grib2 2026-04-29 16:12 661K
20260429T12Z_MSC_GDPS_Thickness_IsbL-0850to0700_LatLon0.15_PT057H.grib2 2026-04-29 16:12 465K
20260429T12Z_MSC_GDPS_Thickness_IsbL-1000to0500_LatLon0.15_PT057H.grib2 2026-04-29 16:12 367K
20260429T12Z_MSC_GDPS_Thickness_IsbL-1000to0850_LatLon0.15_PT057H.grib2 2026-04-29 16:12 487K
20260429T12Z_MSC_GDPS_TotalCloudCover_Sfc_LatLon0.15_PT057H.grib2 2026-04-29 16:12 830K
20260429T12Z_MSC_GDPS_TotalTotalsIndex_Sfc_LatLon0.15_PT057H.grib2 2026-04-29 16:12 6.2M
20260429T12Z_MSC_GDPS_UVIndex-ClearSky_Sfc_LatLon0.15_PT057H.grib2 2026-04-29 16:50 1.0M
20260429T12Z_MSC_GDPS_UVIndex_Sfc_LatLon0.15_PT057H.grib2 2026-04-29 16:50 1.5M
20260429T12Z_MSC_GDPS_UpwardLongwaveRadiationFlux_NTAtm_LatLon0.15_PT057H.grib2 2026-04-29 16:12 834K
20260429T12Z_MSC_GDPS_VerticalVelocity_IsbL-0200_LatLon0.15_PT057H.grib2 2026-04-29 16:12 1.1M
20260429T12Z_MSC_GDPS_VerticalVelocity_IsbL-0250_LatLon0.15_PT057H.grib2 2026-04-29 16:12 1.0M
20260429T12Z_MSC_GDPS_VerticalVelocity_IsbL-0500_LatLon0.15_PT057H.grib2 2026-04-29 16:12 1.3M
20260429T12Z_MSC_GDPS_VerticalVelocity_IsbL-0600_LatLon0.15_PT057H.grib2 2026-04-29 16:12 1.1M
20260429T12Z_MSC_GDPS_VerticalVelocity_IsbL-0700_LatLon0.15_PT057H.grib2 2026-04-29 16:12 1.1M
20260429T12Z_MSC_GDPS_VerticalVelocity_IsbL-0850_LatLon0.15_PT057H.grib2 2026-04-29 16:12 1.4M
20260429T12Z_MSC_GDPS_WindChill_Sfc_LatLon0.15_PT057H.grib2 2026-04-29 16:12 5.3M
20260429T12Z_MSC_GDPS_WindDir_AGL-10m_LatLon0.15_PT057H.grib2 2026-04-29 16:12 1.3M
20260429T12Z_MSC_GDPS_WindDir_AGL-120m_LatLon0.15_PT057H.grib2 2026-04-29 16:12 1.3M
20260429T12Z_MSC_GDPS_WindDir_AGL-40m_LatLon0.15_PT057H.grib2 2026-04-29 16:12 1.4M
20260429T12Z_MSC_GDPS_WindDir_AGL-80m_LatLon0.15_PT057H.grib2 2026-04-29 16:12 1.4M
20260429T12Z_MSC_GDPS_WindDir_IsbL-0001_LatLon0.15_PT057H.grib2 2026-04-29 16:12 681K
20260429T12Z_MSC_GDPS_WindDir_IsbL-0005_LatLon0.15_PT057H.grib2 2026-04-29 16:12 789K
20260429T12Z_MSC_GDPS_WindDir_IsbL-0010_LatLon0.15_PT057H.grib2 2026-04-29 16:12 834K
20260429T12Z_MSC_GDPS_WindDir_IsbL-0020_LatLon0.15_PT057H.grib2 2026-04-29 16:12 943K
20260429T12Z_MSC_GDPS_WindDir_IsbL-0030_LatLon0.15_PT057H.grib2 2026-04-29 16:12 930K
20260429T12Z_MSC_GDPS_WindDir_IsbL-0050_LatLon0.15_PT057H.grib2 2026-04-29 16:12 938K
20260429T12Z_MSC_GDPS_WindDir_IsbL-0100_LatLon0.15_PT057H.grib2 2026-04-29 16:12 1.0M
20260429T12Z_MSC_GDPS_WindDir_IsbL-0150_LatLon0.15_PT057H.grib2 2026-04-29 16:12 1.0M
20260429T12Z_MSC_GDPS_WindDir_IsbL-0175_LatLon0.15_PT057H.grib2 2026-04-29 16:12 1.1M
20260429T12Z_MSC_GDPS_WindDir_IsbL-0200_LatLon0.15_PT057H.grib2 2026-04-29 16:12 1.1M
20260429T12Z_MSC_GDPS_WindDir_IsbL-0225_LatLon0.15_PT057H.grib2 2026-04-29 16:12 1.1M
20260429T12Z_MSC_GDPS_WindDir_IsbL-0250_LatLon0.15_PT057H.grib2 2026-04-29 16:12 1.1M
20260429T12Z_MSC_GDPS_WindDir_IsbL-0275_LatLon0.15_PT057H.grib2 2026-04-29 16:12 1.2M
20260429T12Z_MSC_GDPS_WindDir_IsbL-0300_LatLon0.15_PT057H.grib2 2026-04-29 16:12 1.2M
20260429T12Z_MSC_GDPS_WindDir_IsbL-0350_LatLon0.15_PT057H.grib2 2026-04-29 16:12 1.2M
20260429T12Z_MSC_GDPS_WindDir_IsbL-0400_LatLon0.15_PT057H.grib2 2026-04-29 16:12 1.3M
20260429T12Z_MSC_GDPS_WindDir_IsbL-0450_LatLon0.15_PT057H.grib2 2026-04-29 16:12 1.3M
20260429T12Z_MSC_GDPS_WindDir_IsbL-0500_LatLon0.15_PT057H.grib2 2026-04-29 16:12 1.3M
20260429T12Z_MSC_GDPS_WindDir_IsbL-0550_LatLon0.15_PT057H.grib2 2026-04-29 16:12 1.4M
20260429T12Z_MSC_GDPS_WindDir_IsbL-0600_LatLon0.15_PT057H.grib2 2026-04-29 16:12 1.4M
20260429T12Z_MSC_GDPS_WindDir_IsbL-0650_LatLon0.15_PT057H.grib2 2026-04-29 16:12 1.5M
20260429T12Z_MSC_GDPS_WindDir_IsbL-0700_LatLon0.15_PT057H.grib2 2026-04-29 16:12 1.6M
20260429T12Z_MSC_GDPS_WindDir_IsbL-0750_LatLon0.15_PT057H.grib2 2026-04-29 16:12 1.7M
20260429T12Z_MSC_GDPS_WindDir_IsbL-0800_LatLon0.15_PT057H.grib2 2026-04-29 16:12 1.8M
20260429T12Z_MSC_GDPS_WindDir_IsbL-0850_LatLon0.15_PT057H.grib2 2026-04-29 16:12 1.9M
20260429T12Z_MSC_GDPS_WindDir_IsbL-0875_LatLon0.15_PT057H.grib2 2026-04-29 16:12 1.9M
20260429T12Z_MSC_GDPS_WindDir_IsbL-0900_LatLon0.15_PT057H.grib2 2026-04-29 16:12 2.0M
20260429T12Z_MSC_GDPS_WindDir_IsbL-0925_LatLon0.15_PT057H.grib2 2026-04-29 16:12 2.0M
20260429T12Z_MSC_GDPS_WindDir_IsbL-0950_LatLon0.15_PT057H.grib2 2026-04-29 16:12 2.0M
20260429T12Z_MSC_GDPS_WindDir_IsbL-0970_LatLon0.15_PT057H.grib2 2026-04-29 16:12 2.0M
20260429T12Z_MSC_GDPS_WindDir_IsbL-0985_LatLon0.15_PT057H.grib2 2026-04-29 16:12 2.0M
20260429T12Z_MSC_GDPS_WindDir_IsbL-1000_LatLon0.15_PT057H.grib2 2026-04-29 16:12 2.1M
20260429T12Z_MSC_GDPS_WindDir_IsbL-1015_LatLon0.15_PT057H.grib2 2026-04-29 16:12 2.0M
20260429T12Z_MSC_GDPS_WindGust-Max_AGL-10m_LatLon0.15_PT057H.grib2 2026-04-29 16:12 2.2M
20260429T12Z_MSC_GDPS_WindGust-Min_AGL-10m_LatLon0.15_PT057H.grib2 2026-04-29 16:12 2.2M
20260429T12Z_MSC_GDPS_WindGust_AGL-10m_LatLon0.15_PT057H.grib2 2026-04-29 16:12 2.2M
20260429T12Z_MSC_GDPS_WindSpeed_AGL-10m_LatLon0.15_PT057H.grib2 2026-04-29 16:12 1.1M
20260429T12Z_MSC_GDPS_WindSpeed_AGL-120m_LatLon0.15_PT057H.grib2 2026-04-29 16:12 1.3M
20260429T12Z_MSC_GDPS_WindSpeed_AGL-40m_LatLon0.15_PT057H.grib2 2026-04-29 16:12 1.2M
20260429T12Z_MSC_GDPS_WindSpeed_AGL-80m_LatLon0.15_PT057H.grib2 2026-04-29 16:12 1.3M
20260429T12Z_MSC_GDPS_WindSpeed_IsbL-0001_LatLon0.15_PT057H.grib2 2026-04-29 16:12 642K
20260429T12Z_MSC_GDPS_WindSpeed_IsbL-0005_LatLon0.15_PT057H.grib2 2026-04-29 16:12 611K
20260429T12Z_MSC_GDPS_WindSpeed_IsbL-0010_LatLon0.15_PT057H.grib2 2026-04-29 16:12 629K
20260429T12Z_MSC_GDPS_WindSpeed_IsbL-0020_LatLon0.15_PT057H.grib2 2026-04-29 16:12 860K
20260429T12Z_MSC_GDPS_WindSpeed_IsbL-0030_LatLon0.15_PT057H.grib2 2026-04-29 16:12 865K
20260429T12Z_MSC_GDPS_WindSpeed_IsbL-0050_LatLon0.15_PT057H.grib2 2026-04-29 16:12 906K
20260429T12Z_MSC_GDPS_WindSpeed_IsbL-0100_LatLon0.15_PT057H.grib2 2026-04-29 16:12 1.1M
20260429T12Z_MSC_GDPS_WindSpeed_IsbL-0150_LatLon0.15_PT057H.grib2 2026-04-29 16:12 947K
20260429T12Z_MSC_GDPS_WindSpeed_IsbL-0175_LatLon0.15_PT057H.grib2 2026-04-29 16:12 1.0M
20260429T12Z_MSC_GDPS_WindSpeed_IsbL-0200_LatLon0.15_PT057H.grib2 2026-04-29 16:12 1.1M
20260429T12Z_MSC_GDPS_WindSpeed_IsbL-0225_LatLon0.15_PT057H.grib2 2026-04-29 16:12 1.1M
20260429T12Z_MSC_GDPS_WindSpeed_IsbL-0250_LatLon0.15_PT057H.grib2 2026-04-29 16:12 1.1M
20260429T12Z_MSC_GDPS_WindSpeed_IsbL-0275_LatLon0.15_PT057H.grib2 2026-04-29 16:12 1.1M
20260429T12Z_MSC_GDPS_WindSpeed_IsbL-0300_LatLon0.15_PT057H.grib2 2026-04-29 16:12 1.1M
20260429T12Z_MSC_GDPS_WindSpeed_IsbL-0350_LatLon0.15_PT057H.grib2 2026-04-29 16:12 1.1M
20260429T12Z_MSC_GDPS_WindSpeed_IsbL-0400_LatLon0.15_PT057H.grib2 2026-04-29 16:12 1.1M
20260429T12Z_MSC_GDPS_WindSpeed_IsbL-0450_LatLon0.15_PT057H.grib2 2026-04-29 16:12 1.1M
20260429T12Z_MSC_GDPS_WindSpeed_IsbL-0500_LatLon0.15_PT057H.grib2 2026-04-29 16:12 1.1M
20260429T12Z_MSC_GDPS_WindSpeed_IsbL-0550_LatLon0.15_PT057H.grib2 2026-04-29 16:12 1.1M
20260429T12Z_MSC_GDPS_WindSpeed_IsbL-0600_LatLon0.15_PT057H.grib2 2026-04-29 16:12 1.4M
20260429T12Z_MSC_GDPS_WindSpeed_IsbL-0650_LatLon0.15_PT057H.grib2 2026-04-29 16:12 1.4M
20260429T12Z_MSC_GDPS_WindSpeed_IsbL-0700_LatLon0.15_PT057H.grib2 2026-04-29 16:12 1.5M
20260429T12Z_MSC_GDPS_WindSpeed_IsbL-0750_LatLon0.15_PT057H.grib2 2026-04-29 16:12 1.6M
20260429T12Z_MSC_GDPS_WindSpeed_IsbL-0800_LatLon0.15_PT057H.grib2 2026-04-29 16:12 1.6M
20260429T12Z_MSC_GDPS_WindSpeed_IsbL-0850_LatLon0.15_PT057H.grib2 2026-04-29 16:12 1.7M
20260429T12Z_MSC_GDPS_WindSpeed_IsbL-0875_LatLon0.15_PT057H.grib2 2026-04-29 16:12 1.8M
20260429T12Z_MSC_GDPS_WindSpeed_IsbL-0900_LatLon0.15_PT057H.grib2 2026-04-29 16:12 1.8M
20260429T12Z_MSC_GDPS_WindSpeed_IsbL-0925_LatLon0.15_PT057H.grib2 2026-04-29 16:12 1.8M
20260429T12Z_MSC_GDPS_WindSpeed_IsbL-0950_LatLon0.15_PT057H.grib2 2026-04-29 16:12 1.9M
20260429T12Z_MSC_GDPS_WindSpeed_IsbL-0970_LatLon0.15_PT057H.grib2 2026-04-29 16:12 1.9M
20260429T12Z_MSC_GDPS_WindSpeed_IsbL-0985_LatLon0.15_PT057H.grib2 2026-04-29 16:12 1.9M
20260429T12Z_MSC_GDPS_WindSpeed_IsbL-1000_LatLon0.15_PT057H.grib2 2026-04-29 16:12 1.9M
20260429T12Z_MSC_GDPS_WindSpeed_IsbL-1015_LatLon0.15_PT057H.grib2 2026-04-29 16:12 1.8M
20260429T12Z_MSC_GDPS_WindU_AGL-10m_LatLon0.15_PT057H.grib2 2026-04-29 16:12 1.3M
20260429T12Z_MSC_GDPS_WindU_AGL-120m_LatLon0.15_PT057H.grib2 2026-04-29 16:12 1.0M
20260429T12Z_MSC_GDPS_WindU_AGL-40m_LatLon0.15_PT057H.grib2 2026-04-29 16:12 1.0M
20260429T12Z_MSC_GDPS_WindU_AGL-80m_LatLon0.15_PT057H.grib2 2026-04-29 16:12 1.0M
20260429T12Z_MSC_GDPS_WindU_IsbL-0001_LatLon0.15_PT057H.grib2 2026-04-29 16:12 500K
20260429T12Z_MSC_GDPS_WindU_IsbL-0005_LatLon0.15_PT057H.grib2 2026-04-29 16:12 691K
20260429T12Z_MSC_GDPS_WindU_IsbL-0010_LatLon0.15_PT057H.grib2 2026-04-29 16:12 704K
20260429T12Z_MSC_GDPS_WindU_IsbL-0020_LatLon0.15_PT057H.grib2 2026-04-29 16:12 733K
20260429T12Z_MSC_GDPS_WindU_IsbL-0030_LatLon0.15_PT057H.grib2 2026-04-29 16:12 739K
20260429T12Z_MSC_GDPS_WindU_IsbL-0050_LatLon0.15_PT057H.grib2 2026-04-29 16:12 768K
20260429T12Z_MSC_GDPS_WindU_IsbL-0100_LatLon0.15_PT057H.grib2 2026-04-29 16:12 926K
20260429T12Z_MSC_GDPS_WindU_IsbL-0150_LatLon0.15_PT057H.grib2 2026-04-29 16:12 1.0M
20260429T12Z_MSC_GDPS_WindU_IsbL-0175_LatLon0.15_PT057H.grib2 2026-04-29 16:12 1.0M
20260429T12Z_MSC_GDPS_WindU_IsbL-0200_LatLon0.15_PT057H.grib2 2026-04-29 16:12 851K
20260429T12Z_MSC_GDPS_WindU_IsbL-0225_LatLon0.15_PT057H.grib2 2026-04-29 16:12 859K
20260429T12Z_MSC_GDPS_WindU_IsbL-0250_LatLon0.15_PT057H.grib2 2026-04-29 16:12 860K
20260429T12Z_MSC_GDPS_WindU_IsbL-0275_LatLon0.15_PT057H.grib2 2026-04-29 16:12 883K
20260429T12Z_MSC_GDPS_WindU_IsbL-0300_LatLon0.15_PT057H.grib2 2026-04-29 16:12 874K
20260429T12Z_MSC_GDPS_WindU_IsbL-0350_LatLon0.15_PT057H.grib2 2026-04-29 16:12 884K
20260429T12Z_MSC_GDPS_WindU_IsbL-0400_LatLon0.15_PT057H.grib2 2026-04-29 16:12 1.1M
20260429T12Z_MSC_GDPS_WindU_IsbL-0450_LatLon0.15_PT057H.grib2 2026-04-29 16:12 1.1M
20260429T12Z_MSC_GDPS_WindU_IsbL-0500_LatLon0.15_PT057H.grib2 2026-04-29 16:12 1.1M
20260429T12Z_MSC_GDPS_WindU_IsbL-0550_LatLon0.15_PT057H.grib2 2026-04-29 16:12 1.1M
20260429T12Z_MSC_GDPS_WindU_IsbL-0600_LatLon0.15_PT057H.grib2 2026-04-29 16:12 1.1M
20260429T12Z_MSC_GDPS_WindU_IsbL-0650_LatLon0.15_PT057H.grib2 2026-04-29 16:12 1.2M
20260429T12Z_MSC_GDPS_WindU_IsbL-0700_LatLon0.15_PT057H.grib2 2026-04-29 16:12 1.2M
20260429T12Z_MSC_GDPS_WindU_IsbL-0750_LatLon0.15_PT057H.grib2 2026-04-29 16:12 1.3M
20260429T12Z_MSC_GDPS_WindU_IsbL-0800_LatLon0.15_PT057H.grib2 2026-04-29 16:12 1.4M
20260429T12Z_MSC_GDPS_WindU_IsbL-0850_LatLon0.15_PT057H.grib2 2026-04-29 16:12 1.4M
20260429T12Z_MSC_GDPS_WindU_IsbL-0875_LatLon0.15_PT057H.grib2 2026-04-29 16:12 1.5M
20260429T12Z_MSC_GDPS_WindU_IsbL-0900_LatLon0.15_PT057H.grib2 2026-04-29 16:12 1.5M
20260429T12Z_MSC_GDPS_WindU_IsbL-0925_LatLon0.15_PT057H.grib2 2026-04-29 16:12 1.5M
20260429T12Z_MSC_GDPS_WindU_IsbL-0950_LatLon0.15_PT057H.grib2 2026-04-29 16:12 1.5M
20260429T12Z_MSC_GDPS_WindU_IsbL-0970_LatLon0.15_PT057H.grib2 2026-04-29 16:12 1.4M
20260429T12Z_MSC_GDPS_WindU_IsbL-0985_LatLon0.15_PT057H.grib2 2026-04-29 16:12 1.4M
20260429T12Z_MSC_GDPS_WindU_IsbL-1000_LatLon0.15_PT057H.grib2 2026-04-29 16:12 1.4M
20260429T12Z_MSC_GDPS_WindU_IsbL-1015_LatLon0.15_PT057H.grib2 2026-04-29 16:12 1.4M
20260429T12Z_MSC_GDPS_WindV_AGL-10m_LatLon0.15_PT057H.grib2 2026-04-29 16:12 1.3M
20260429T12Z_MSC_GDPS_WindV_AGL-120m_LatLon0.15_PT057H.grib2 2026-04-29 16:12 1.0M
20260429T12Z_MSC_GDPS_WindV_AGL-40m_LatLon0.15_PT057H.grib2 2026-04-29 16:12 1.0M
20260429T12Z_MSC_GDPS_WindV_AGL-80m_LatLon0.15_PT057H.grib2 2026-04-29 16:12 1.0M
20260429T12Z_MSC_GDPS_WindV_IsbL-0001_LatLon0.15_PT057H.grib2 2026-04-29 16:12 779K
20260429T12Z_MSC_GDPS_WindV_IsbL-0005_LatLon0.15_PT057H.grib2 2026-04-29 16:12 764K
20260429T12Z_MSC_GDPS_WindV_IsbL-0010_LatLon0.15_PT057H.grib2 2026-04-29 16:12 799K
20260429T12Z_MSC_GDPS_WindV_IsbL-0020_LatLon0.15_PT057H.grib2 2026-04-29 16:12 853K
20260429T12Z_MSC_GDPS_WindV_IsbL-0030_LatLon0.15_PT057H.grib2 2026-04-29 16:12 854K
20260429T12Z_MSC_GDPS_WindV_IsbL-0050_LatLon0.15_PT057H.grib2 2026-04-29 16:12 905K
20260429T12Z_MSC_GDPS_WindV_IsbL-0100_LatLon0.15_PT057H.grib2 2026-04-29 16:12 1.1M
20260429T12Z_MSC_GDPS_WindV_IsbL-0150_LatLon0.15_PT057H.grib2 2026-04-29 16:12 1.0M
20260429T12Z_MSC_GDPS_WindV_IsbL-0175_LatLon0.15_PT057H.grib2 2026-04-29 16:12 1.0M
20260429T12Z_MSC_GDPS_WindV_IsbL-0200_LatLon0.15_PT057H.grib2 2026-04-29 16:12 850K
20260429T12Z_MSC_GDPS_WindV_IsbL-0225_LatLon0.15_PT057H.grib2 2026-04-29 16:12 857K
20260429T12Z_MSC_GDPS_WindV_IsbL-0250_LatLon0.15_PT057H.grib2 2026-04-29 16:12 854K
20260429T12Z_MSC_GDPS_WindV_IsbL-0275_LatLon0.15_PT057H.grib2 2026-04-29 16:12 877K
20260429T12Z_MSC_GDPS_WindV_IsbL-0300_LatLon0.15_PT057H.grib2 2026-04-29 16:12 864K
20260429T12Z_MSC_GDPS_WindV_IsbL-0350_LatLon0.15_PT057H.grib2 2026-04-29 16:12 874K
20260429T12Z_MSC_GDPS_WindV_IsbL-0400_LatLon0.15_PT057H.grib2 2026-04-29 16:12 876K
20260429T12Z_MSC_GDPS_WindV_IsbL-0450_LatLon0.15_PT057H.grib2 2026-04-29 16:12 1.1M
20260429T12Z_MSC_GDPS_WindV_IsbL-0500_LatLon0.15_PT057H.grib2 2026-04-29 16:12 1.1M
20260429T12Z_MSC_GDPS_WindV_IsbL-0550_LatLon0.15_PT057H.grib2 2026-04-29 16:12 1.1M
20260429T12Z_MSC_GDPS_WindV_IsbL-0600_LatLon0.15_PT057H.grib2 2026-04-29 16:12 1.1M
20260429T12Z_MSC_GDPS_WindV_IsbL-0650_LatLon0.15_PT057H.grib2 2026-04-29 16:12 1.2M
20260429T12Z_MSC_GDPS_WindV_IsbL-0700_LatLon0.15_PT057H.grib2 2026-04-29 16:12 1.2M
20260429T12Z_MSC_GDPS_WindV_IsbL-0750_LatLon0.15_PT057H.grib2 2026-04-29 16:12 1.3M
20260429T12Z_MSC_GDPS_WindV_IsbL-0800_LatLon0.15_PT057H.grib2 2026-04-29 16:12 1.3M
20260429T12Z_MSC_GDPS_WindV_IsbL-0850_LatLon0.15_PT057H.grib2 2026-04-29 16:12 1.4M
20260429T12Z_MSC_GDPS_WindV_IsbL-0875_LatLon0.15_PT057H.grib2 2026-04-29 16:12 1.5M
20260429T12Z_MSC_GDPS_WindV_IsbL-0900_LatLon0.15_PT057H.grib2 2026-04-29 16:12 1.5M
20260429T12Z_MSC_GDPS_WindV_IsbL-0925_LatLon0.15_PT057H.grib2 2026-04-29 16:12 1.5M
20260429T12Z_MSC_GDPS_WindV_IsbL-0950_LatLon0.15_PT057H.grib2 2026-04-29 16:12 1.4M
20260429T12Z_MSC_GDPS_WindV_IsbL-0970_LatLon0.15_PT057H.grib2 2026-04-29 16:12 1.4M
20260429T12Z_MSC_GDPS_WindV_IsbL-0985_LatLon0.15_PT057H.grib2 2026-04-29 16:12 1.4M
20260429T12Z_MSC_GDPS_WindV_IsbL-1000_LatLon0.15_PT057H.grib2 2026-04-29 16:12 1.4M
20260429T12Z_MSC_GDPS_WindV_IsbL-1015_LatLon0.15_PT057H.grib2 2026-04-29 16:12 1.3M